Regional Weather Roundup
Issued by NWS

Home | Current Version | Previous Version | Graphics & Text | Print | Product List | Glossary On
Versions: 1 2 3 4 5 6 7 8 9 10 11 12 13 14 15 16 17 18 19 20 21 22 23 24 25 26 27 28 29 30 31 32 33 34 35 36 37 38 39 40 41 42 43 44 45 46 47 48 49 50
193
ASUS43 KTOP 231408
RWRKS

WEATHER ROUNDUP FOR KANSAS
NATIONAL WEATHER SERVICE GOODLAND KS
900 AM CDT WED MAY 23 2018

NOTE:  "FAIR" INDICATES FEW OR NO CLOUDS BELOW 12,000 FEET WITH NO
SIGNIFICANT WEATHER AND/OR OBSTRUCTIONS TO VISIBILITY.

KSZ001>006-013>018-027>032-041>047-231500-
NORTHWEST KANSAS

CITY           SKY/WX    TMP DP  RH WIND       PRES   REMARKS
GOODLAND       CLOUDY    66  52  60 S22G29    30.00S
HAYS           CLOUDY    75  62  64 S17       30.04
HILL CITY      CLOUDY    73  62  68 S14G21    30.02R
RUSSELL        PTSUNNY   77  67  71 MISG      30.03R
$$

KSZ061>065-074>080-084>089-231500-
SOUTHWEST KANSAS

CITY           SKY/WX    TMP DP  RH WIND       PRES   REMARKS
DODGE CITY     CLOUDY    70  56  61 SW13      30.08S
ELKHART        PTSUNNY   63  61  94 S13       30.08R
GARDEN CITY    CLOUDY    63  57  81 E7        30.01F
GREAT BEND     CLOUDY    73  65  75 S15       30.06R
LIBERAL        CLOUDY    62  59  90 VRB5      30.07F
PRATT          CLOUDY    73  65  74 SW13      30.09R
$$

KSZ066>073-081>083-090>101-231500-
SOUTHEAST KANSAS

CITY           SKY/WX    TMP DP  RH WIND       PRES   REMARKS
CHANUTE        SUNNY     75  71  87 S7        30.11R
COFFEYVILLE    SUNNY     75  70  84 S8        30.10R
HUTCHINSON     SUNNY     75  68  78 S9        30.07R
MEDICINE LODGE   N/A     73  66  78 S7        30.06S
NEWTON         SUNNY     76  68  76 S13       30.10R
PARSONS        SUNNY     75  71  87 S5        30.11R
WICHITA INTL   MOSUNNY   75  69  81 S12       30.08R
WICHITA JABRA  SUNNY     75  70  84 S7        30.09R
WICHITA MCCONL SUNNY     75  68  79 S6        30.09R
WINFIELD       CLOUDY    74  70  87 S7        30.10R
$$

KSZ007>012-019>026-033>040-048>060-102>105-231500-
NORTHEAST KANSAS

CITY           SKY/WX    TMP DP  RH WIND       PRES   REMARKS
CONCORDIA      SUNNY     75  66  73 S12       30.05S
EMPORIA        SUNNY     74  69  85 S10       30.09R
LAWRENCE       SUNNY     75  69  81 SE7       30.09R
MANHATTAN      CLOUDY    79  69  71 SW7       30.07R
MARYSVILLE     SUNNY     77  70  78 S8        30.07S
OLATHE IND     SUNNY     75  68  78 S8        30.11R
OLATHE EXE     SUNNY     74  68  81 SE6       30.11R
SALINA         MOSUNNY   78  69  73 S9        30.07R
TOPEKA BILLARD SUNNY     76  71  85 SE3       30.08S
TOPEKA FORBES  SUNNY     77  70  79 S7        30.09R
$$




USA.gov is the U.S. government's official web portal to all federal, state and local government web resources and services.